Orbital Elements
Epoch 2004 Mar. 16.0 TT = JDT 2453080.5
T 2004 Mar. 12.32668 TT MPCW
q 0.0483164 (2000.0) P Q
n 0.23351330 Peri. 353.06258 +0.73457815 +0.67562583
a 2.6117301 Node 324.17472 -0.61727828 +0.62708466
e 0.9815002 Incl. 6.14423 -0.28171345 +0.38767843
P 4.22
From 47 observations 1999 Dec. 12-2012 Aug. 20.
|